Select another period ( hide this area )

Units Period Custom range Directly to
Metric English Both
Daily Weekly Monthly Yearly
use both date-selectors for a custom range
previous Day
With this date

WeatherUnderground graphs for this period ( click here ) Loading the graph can take up to a minute!


Daily Summary for Wednesday Feb 19 2020
Time Temp. ( °C ) Dew pt. ( °C ) Wind ( km/h ) From Gust ( km/h ) Pressure ( hPa ) Humid.( % ) Rainrate ( cm )
High7,8 5,4 27,0 WNW ( 83/311 ) 35,0 1016,6 90 2,29
Average6,6 4,8 10,7 WNW #10/29 16,8 1016,0 88 2,20
Low5,8 4,2 3,0   0,0 1015,6 82 0,25
Daily Tabular details for Wednesday Feb 19 2020
Time Temp. ( °C ) Dew pt. ( °C ) Wind ( km/h ) From Gust ( km/h ) Pressure ( hPa ) Humid.( % ) Rainrate ( cm )
00:04 7,8 4,9 6,0 East 15,0 1016,3 82 0,25
00:09 7,7 5,0 3,0 South 18,0 1015,9 83 0,25
00:13 7,6 5,1 6,0 West 16,0 1015,9 84 0,25
00:19 7,6 5,1 10,0 NE 10,0 1015,9 84 0,25
00:24 7,5 5,0 10,0 NE   1015,6 84 0,25
00:29 7,5 5,1 10,0 NNE 10,0 1016,3 86 0,25
00:34 7,3 5,3 5,0 SE 15,0 1016,3 87 0,51
00:39 7,2 5,3 6,0 North 19,0 1016,3 88 0,51
00:44 7,1 5,4 10,0 West 18,0 1016,3 89 0,76
00:49 6,9 5,4 18,0 NNW 23,0 1016,3 90 1,02
00:53 6,9 5,4 27,0 NW 31,0 1016,3 90 1,27
00:59 6,9 5,4 23,0 NNW 26,0 1016,3 90 1,52
01:04 6,8 5,3 24,0 WSW 27,0 1016,3 90 1,52
01:09 6,7 5,0 26,0 WNW 34,0 1016,3 89 1,52
01:14 6,6 4,9 16,0 WNW 19,0 1016,3 89 1,52
01:19 6,4 4,7 24,0 NW 34,0 1016,3 89 1,78
01:24 6,2 4,5 18,0 West 35,0 1016,6 89 2,03
01:29 5,9 4,2 14,0 NW 19,0 1016,3 89 2,29
01:34 5,9 4,2 6,0 WNW 35,0 1016,3 89 2,03
01:39 5,9 4,4 10,0 WNW 13,0 1016,3 90 2,03
01:44 5,9 4,4 8,0 NW 11,0 1015,6 90 1,78
01:49 5,8 4,3 8,0 WNW 13,0 1015,9 90 1,52
01:54 5,8 4,3 5,0 WNW 10,0 1015,6 90 1,52
01:59 5,8 4,3 3,0 WNW 15,0 1015,6 90 1,27
02:04 5,8 4,3 3,0 West 10,0 1015,6 90 1,02
02:09 5,8 4,3 3,0 West   1015,6 90 0,76
02:14 5,9 4,4 3,0 WNW 11,0 1015,6 90 0,51
02:19 5,9 4,4 3,0 WNW   1015,6 90 0,51
02:20 5,9 4,4 3,0 WNW   1015,6 90 0,51
Daily Summary for Wednesday Feb 19 2020
Time Temp. ( °C ) Dew pt. ( °C ) Wind ( km/h ) From Gust ( km/h ) Pressure ( hPa ) Humid.( % ) Rainrate ( cm )
High7,8 5,4 27,0 WNW ( 83/311 ) 35,0 1016,6 90 2,29
Average6,6 4,8 10,7 WNW #10/29 16,8 1016,0 88 2,20
Low5,8 4,2 3,0   0,0 1015,6 82 0,25
Daily Tabular details for Wednesday Feb 19 2020
Time Temp. ( °C ) Dew pt. ( °C ) Wind ( km/h ) From Gust ( km/h ) Pressure ( hPa ) Humid.( % ) Rainrate ( cm )
00:04 7,8 4,9 6,0 East 15,0 1016,3 82 0,25
00:09 7,7 5,0 3,0 South 18,0 1015,9 83 0,25
00:13 7,6 5,1 6,0 West 16,0 1015,9 84 0,25
00:19 7,6 5,1 10,0 NE 10,0 1015,9 84 0,25
00:24 7,5 5,0 10,0 NE   1015,6 84 0,25
00:29 7,5 5,1 10,0 NNE 10,0 1016,3 86 0,25
00:34 7,3 5,3 5,0 SE 15,0 1016,3 87 0,51
00:39 7,2 5,3 6,0 North 19,0 1016,3 88 0,51
00:44 7,1 5,4 10,0 West 18,0 1016,3 89 0,76
00:49 6,9 5,4 18,0 NNW 23,0 1016,3 90 1,02
00:53 6,9 5,4 27,0 NW 31,0 1016,3 90 1,27
00:59 6,9 5,4 23,0 NNW 26,0 1016,3 90 1,52
01:04 6,8 5,3 24,0 WSW 27,0 1016,3 90 1,52
01:09 6,7 5,0 26,0 WNW 34,0 1016,3 89 1,52
01:14 6,6 4,9 16,0 WNW 19,0 1016,3 89 1,52
01:19 6,4 4,7 24,0 NW 34,0 1016,3 89 1,78
01:24 6,2 4,5 18,0 West 35,0 1016,6 89 2,03
01:29 5,9 4,2 14,0 NW 19,0 1016,3 89 2,29
01:34 5,9 4,2 6,0 WNW 35,0 1016,3 89 2,03
01:39 5,9 4,4 10,0 WNW 13,0 1016,3 90 2,03
01:44 5,9 4,4 8,0 NW 11,0 1015,6 90 1,78
01:49 5,8 4,3 8,0 WNW 13,0 1015,9 90 1,52
01:54 5,8 4,3 5,0 WNW 10,0 1015,6 90 1,52
01:59 5,8 4,3 3,0 WNW 15,0 1015,6 90 1,27
02:04 5,8 4,3 3,0 West 10,0 1015,6 90 1,02
02:09 5,8 4,3 3,0 West   1015,6 90 0,76
02:14 5,9 4,4 3,0 WNW 11,0 1015,6 90 0,51
02:19 5,9 4,4 3,0 WNW   1015,6 90 0,51
02:20 5,9 4,4 3,0 WNW   1015,6 90 0,51

Download your copy of this data-set  from WeatherUnderground

Our weather-data as stored at Weather Underground. Original script b Jim McMurry. Rewritten for template use Leuven-Template